CSN186 ZGGG-ZSOF

Flight info

Callsign CSN186
Flight time N/A
Altitude 331000
Route MIKIP A461 LKO R343 MIDOX
Aircraft B753/M-VGDW/C

Departure

Time 2026-05-07 05:54
Airport Guangzhou Baiyun International Airport (ZGGG)

Arrival

Time N/A
Airport Hefei Xinqiao International Airport (ZSOF)
Time Latitude Longitude Altitude Speed Heading
2026-05-07 05:36 23.38528 113.29107 55 ft 0 kts 66°
2026-05-07 05:44 23.38528 113.29106 55 ft 0 kts 67°
2026-05-07 05:44 23.38520 113.29087 55 ft 2 kts 66°
2026-05-07 05:44 23.38514 113.29073 55 ft 2 kts 66°
2026-05-07 05:45 23.38508 113.29057 55 ft 2 kts 66°
2026-05-07 05:45 23.38502 113.29042 55 ft 2 kts 66°
2026-05-07 05:45 23.38496 113.29028 55 ft 2 kts 66°
2026-05-07 05:45 23.38490 113.29012 55 ft 2 kts 66°
2026-05-07 05:46 23.38485 113.28998 55 ft 2 kts 66°
2026-05-07 05:46 23.38481 113.28982 55 ft 2 kts 94°
2026-05-07 05:46 23.38484 113.28966 55 ft 2 kts 119°
2026-05-07 05:46 23.38494 113.28953 55 ft 2 kts 143°
2026-05-07 05:47 23.38507 113.28945 55 ft 2 kts 168°
2026-05-07 05:47 23.38521 113.28944 55 ft 0 kts 190°
2026-05-07 05:47 23.38527 113.28946 55 ft 1 kts 194°
2026-05-07 05:47 23.38528 113.28947 55 ft 0 kts 194°
2026-05-07 05:49 23.38524 113.28946 55 ft 2 kts 193°
2026-05-07 05:50 23.38490 113.28936 55 ft 7 kts 197°
2026-05-07 05:50 23.38456 113.28886 55 ft 11 kts 262°
2026-05-07 05:50 23.38467 113.28780 55 ft 15 kts 256°
2026-05-07 05:50 23.38362 113.28722 55 ft 20 kts 193°
2026-05-07 05:51 23.38212 113.28678 55 ft 24 kts 196°
2026-05-07 05:51 23.38040 113.28631 55 ft 24 kts 194°
2026-05-07 05:51 23.37886 113.28590 55 ft 21 kts 191°
2026-05-07 05:51 23.37749 113.28557 55 ft 19 kts 194°
2026-05-07 05:52 23.37677 113.28481 55 ft 12 kts 279°
2026-05-07 05:52 23.37678 113.28474 55 ft 0 kts 280°
2026-05-07 05:52 23.37684 113.28445 55 ft 9 kts 283°
2026-05-07 05:53 23.37746 113.28371 55 ft 19 kts
2026-05-07 05:53 23.37986 113.28429 55 ft 59 kts 14°
2026-05-07 05:53 23.38558 113.28584 56 ft 110 kts 14°
2026-05-07 05:53 23.39451 113.28825 56 ft 156 kts 14°
2026-05-07 05:54 23.40603 113.29134 352 ft 172 kts 13°
2026-05-07 05:54 23.41793 113.29431 729 ft 182 kts 12°
2026-05-07 05:54 23.43050 113.29703 1210 ft 186 kts
2026-05-07 05:54 23.44310 113.29920 1788 ft 185 kts
2026-05-07 05:55 23.45575 113.30132 2289 ft 184 kts 11°
2026-05-07 05:55 23.46849 113.30514 2371 ft 201 kts 17°
2026-05-07 05:55 23.48299 113.30971 2368 ft 230 kts 15°
2026-05-07 05:55 23.49885 113.31440 2773 ft 243 kts 15°
2026-05-07 05:56 23.51507 113.31904 3521 ft 241 kts 14°
2026-05-07 05:56 23.53120 113.32356 4109 ft 245 kts 14°
2026-05-07 05:56 23.54788 113.32815 4774 ft 246 kts 14°
2026-05-07 05:56 23.56430 113.33259 5387 ft 249 kts 13°
2026-05-07 05:57 23.58118 113.33775 6019 ft 251 kts 20°
2026-05-07 05:57 23.59735 113.34481 6630 ft 253 kts 21°
2026-05-07 05:57 23.61364 113.35171 7233 ft 256 kts 21°
2026-05-07 05:57 23.63025 113.35855 7831 ft 258 kts 20°
2026-05-07 05:58 23.64760 113.36316 8413 ft 260 kts
2026-05-07 05:58 23.66554 113.36495 8995 ft 262 kts
2026-05-07 05:58 23.68375 113.36680 9573 ft 265 kts
2026-05-07 05:58 23.70209 113.36860 9996 ft 271 kts
2026-05-07 05:59 23.72104 113.37042 10031 ft 270 kts
2026-05-07 05:59 23.73456 113.37171 10138 ft 268 kts
2026-05-07 05:59 23.75210 113.37337 10461 ft 273 kts
2026-05-07 05:59 23.77079 113.37514 11195 ft 269 kts
2026-05-07 06:00 23.78976 113.37693 11462 ft 284 kts
2026-05-07 06:00 23.81029 113.37888 11489 ft 309 kts
2026-05-07 06:00 23.83228 113.38097 11515 ft 333 kts
2026-05-07 06:00 23.85636 113.38325 11538 ft 358 kts
2026-05-07 06:01 23.88196 113.38568 11954 ft 370 kts
2026-05-07 06:01 23.90719 113.38808 12776 ft 371 kts
2026-05-07 06:01 23.93320 113.39055 13401 ft 376 kts
2026-05-07 06:01 23.95904 113.39301 14104 ft 379 kts
2026-05-07 06:02 23.98529 113.39550 14751 ft 383 kts
2026-05-07 06:02 24.01187 113.39803 15411 ft 386 kts
2026-05-07 06:02 24.03862 113.40057 16043 ft 390 kts
2026-05-07 06:02 24.06579 113.40315 16666 ft 394 kts
2026-05-07 06:03 24.09323 113.40577 17274 ft 397 kts
2026-05-07 06:03 24.12059 113.40837 17862 ft 401 kts
2026-05-07 06:03 24.14847 113.41103 18443 ft 404 kts
2026-05-07 06:03 24.17651 113.41370 19010 ft 408 kts
2026-05-07 06:04 24.20491 113.41573 19564 ft 411 kts
2026-05-07 06:04 24.23368 113.41654 20107 ft 414 kts
2026-05-07 06:04 24.26246 113.41745 20634 ft 418 kts
2026-05-07 06:04 24.29128 113.41838 21145 ft 421 kts
2026-05-07 06:05 24.32076 113.41934 21652 ft 424 kts
2026-05-07 06:05 24.35017 113.42030 22142 ft 427 kts
2026-05-07 06:05 24.37976 113.42110 22620 ft 430 kts
2026-05-07 06:05 24.40999 113.42191 23094 ft 433 kts
2026-05-07 06:06 24.44019 113.42274 23552 ft 436 kts
2026-05-07 06:06 24.47041 113.42360 23998 ft 439 kts
2026-05-07 06:06 24.50101 113.42446 24435 ft 442 kts
2026-05-07 06:06 24.53182 113.42533 24862 ft 445 kts
2026-05-07 06:07 24.56285 113.42622 25280 ft 448 kts
2026-05-07 06:07 24.59396 113.42709 25686 ft 450 kts
2026-05-07 06:07 24.62536 113.42799 26084 ft 453 kts
2026-05-07 06:07 24.65058 113.42870 26395 ft 455 kts
2026-05-07 06:08 24.68222 113.42960 26775 ft 458 kts
2026-05-07 06:08 24.70487 113.43024 27041 ft 460 kts
2026-05-07 06:08 24.73682 113.43115 27406 ft 462 kts
2026-05-07 06:08 24.76890 113.43206 27763 ft 465 kts
2026-05-07 06:09 24.80132 113.43298 28113 ft 467 kts
2026-05-07 06:09 24.83385 113.43391 28454 ft 470 kts
2026-05-07 06:09 24.86647 113.43484 28785 ft 472 kts
2026-05-07 06:09 24.89919 113.43577 29108 ft 474 kts
2026-05-07 06:10 24.93258 113.43672 29427 ft 477 kts
2026-05-07 06:10 24.96556 113.43766 29732 ft 479 kts
2026-05-07 06:10 24.99909 113.43862 30031 ft 481 kts
2026-05-07 06:10 25.03223 113.43957 30315 ft 483 kts
2026-05-07 06:11 25.06554 113.44052 30661 ft 483 kts
2026-05-07 06:11 25.09932 113.44148 31078 ft 482 kts
2026-05-07 06:11 25.13271 113.44244 31450 ft 481 kts
2026-05-07 06:11 25.16583 113.44338 31807 ft 480 kts
2026-05-07 06:12 25.19950 113.44434 32162 ft 479 kts
2026-05-07 06:12 25.23264 113.44529 32496 ft 479 kts
2026-05-07 06:12 25.26553 113.44624 32817 ft 478 kts
2026-05-07 06:12 25.29891 113.44719 33083 ft 478 kts
2026-05-07 06:13 25.33196 113.44814 33100 ft 479 kts
2026-05-07 06:13 25.39789 113.45003 33099 ft 476 kts
2026-05-07 06:14 25.46431 113.45194 33100 ft 476 kts
2026-05-07 06:14 25.53033 113.45384 33099 ft 476 kts
2026-05-07 06:15 25.59622 113.45574 33100 ft 476 kts
2026-05-07 06:15 25.66258 113.45766 33100 ft 476 kts
2026-05-07 06:16 25.72829 113.45955 33100 ft 476 kts
2026-05-07 06:16 25.79455 113.46146 33100 ft 476 kts
2026-05-07 06:17 25.86061 113.46338 33100 ft 476 kts
2026-05-07 06:17 25.92695 113.46542 33100 ft 476 kts
2026-05-07 06:18 25.99285 113.46747 33100 ft 476 kts
2026-05-07 06:18 26.05872 113.46951 33100 ft 476 kts